Year,Month,Day,Hour,Minute,Value (Times are PST for temperature in C)
2018,09,23,00,00,4.70
2018,09,23,00,01,4.70
2018,09,23,00,02,4.70
2018,09,23,00,03,4.60
2018,09,23,00,04,4.60
2018,09,23,00,05,4.60
2018,09,23,00,06,4.60
2018,09,23,00,07,4.60
2018,09,23,00,08,4.60
2018,09,23,00,09,4.60
2018,09,23,00,10,4.60
2018,09,23,00,11,4.50
2018,09,23,00,12,4.50
2018,09,23,00,13,4.50
2018,09,23,00,14,4.50
2018,09,23,00,15,4.50
2018,09,23,00,16,4.50
2018,09,23,00,17,4.50
2018,09,23,00,18,4.50
2018,09,23,00,19,4.50
2018,09,23,00,20,4.50
2018,09,23,00,21,4.50
2018,09,23,00,22,4.50
2018,09,23,00,23,4.50
2018,09,23,00,24,4.60
2018,09,23,00,25,4.60
2018,09,23,00,26,4.50
2018,09,23,00,27,4.50
2018,09,23,00,28,4.50
2018,09,23,00,29,4.50
2018,09,23,00,30,4.50
2018,09,23,00,31,4.50
2018,09,23,00,32,4.50
2018,09,23,00,33,4.50
2018,09,23,00,34,4.40
2018,09,23,00,35,4.40
2018,09,23,00,36,4.40
2018,09,23,00,37,4.40
2018,09,23,00,38,4.40
2018,09,23,00,39,4.40
2018,09,23,00,40,4.30
2018,09,23,00,41,4.30
2018,09,23,00,42,4.30
2018,09,23,00,43,4.30
2018,09,23,00,44,4.30
2018,09,23,00,45,4.30
2018,09,23,00,46,4.20
2018,09,23,00,47,4.20
2018,09,23,00,48,4.20
2018,09,23,00,49,4.20
2018,09,23,00,50,4.20
2018,09,23,00,51,4.20
2018,09,23,00,52,4.20
2018,09,23,00,53,4.10
2018,09,23,00,54,4.10
2018,09,23,00,55,4.10
2018,09,23,00,56,4.10
2018,09,23,00,57,4.10
2018,09,23,00,58,4.10
2018,09,23,00,59,4.10
2018,09,23,01,00,4.10
2018,09,23,01,01,4.00
2018,09,23,01,02,4.00
2018,09,23,01,03,4.00
2018,09,23,01,04,4.00
2018,09,23,01,05,3.90
2018,09,23,01,06,3.90
2018,09,23,01,07,3.90
2018,09,23,01,08,3.90
2018,09,23,01,09,3.80
2018,09,23,01,10,3.80
2018,09,23,01,11,3.80
2018,09,23,01,12,3.80
2018,09,23,01,13,3.80
2018,09,23,01,14,3.70
2018,09,23,01,15,3.70
2018,09,23,01,16,3.70
2018,09,23,01,17,3.60
2018,09,23,01,18,3.60
2018,09,23,01,19,3.60
2018,09,23,01,20,3.50
2018,09,23,01,21,3.50
2018,09,23,01,22,3.50
2018,09,23,01,23,3.40
2018,09,23,01,24,3.40
2018,09,23,01,25,3.40
2018,09,23,01,26,3.40
2018,09,23,01,27,3.30
2018,09,23,01,28,3.30
2018,09,23,01,29,3.30
2018,09,23,01,30,3.30
2018,09,23,01,31,3.30
2018,09,23,01,32,3.30
2018,09,23,01,33,3.20
2018,09,23,01,34,3.20
2018,09,23,01,35,3.20
2018,09,23,01,36,3.20
2018,09,23,01,37,3.10
2018,09,23,01,38,3.10
2018,09,23,01,39,3.10
2018,09,23,01,40,3.10
2018,09,23,01,41,3.10
2018,09,23,01,42,3.10
2018,09,23,01,43,3.00
2018,09,23,01,44,3.00
2018,09,23,01,45,3.00
2018,09,23,01,46,3.00
2018,09,23,01,47,3.00
2018,09,23,01,48,3.00
2018,09,23,01,49,3.00
2018,09,23,01,50,3.00
2018,09,23,01,51,3.00
2018,09,23,01,52,3.00
2018,09,23,01,53,3.00
2018,09,23,01,54,3.00
2018,09,23,01,55,3.00
2018,09,23,01,56,3.10
2018,09,23,01,57,3.10
2018,09,23,01,58,3.20
2018,09,23,01,59,3.20
2018,09,23,02,00,3.20
2018,09,23,02,01,3.20
2018,09,23,02,02,3.20
2018,09,23,02,03,3.20
2018,09,23,02,04,3.20
2018,09,23,02,05,3.20
2018,09,23,02,06,3.20
2018,09,23,02,07,3.20
2018,09,23,02,08,3.20
2018,09,23,02,09,3.20
2018,09,23,02,10,3.20
2018,09,23,02,11,3.20
2018,09,23,02,12,3.20
2018,09,23,02,13,3.20
2018,09,23,02,14,3.20
2018,09,23,02,15,3.20
2018,09,23,02,16,3.20
2018,09,23,02,17,3.20
2018,09,23,02,18,3.20
2018,09,23,02,19,3.20
2018,09,23,02,20,3.20
2018,09,23,02,21,3.20
2018,09,23,02,22,3.20
2018,09,23,02,23,3.20
2018,09,23,02,24,3.20
2018,09,23,02,25,3.20
2018,09,23,02,26,3.20
2018,09,23,02,27,3.10
2018,09,23,02,28,3.10
2018,09,23,02,29,3.10
2018,09,23,02,30,3.10
2018,09,23,02,31,3.10
2018,09,23,02,32,3.10
2018,09,23,02,33,3.10
2018,09,23,02,34,3.10
2018,09,23,02,35,3.10
2018,09,23,02,36,3.10
2018,09,23,02,37,3.10
2018,09,23,02,38,3.20
2018,09,23,02,39,3.20
2018,09,23,02,40,3.20
2018,09,23,02,41,3.20
2018,09,23,02,42,3.20
2018,09,23,02,43,3.30
2018,09,23,02,44,3.30
2018,09,23,02,45,3.30
2018,09,23,02,46,3.40
2018,09,23,02,47,3.40
2018,09,23,02,48,3.40
2018,09,23,02,49,3.40
2018,09,23,02,50,3.40
2018,09,23,02,51,3.40
2018,09,23,02,52,3.50
2018,09,23,02,53,3.50
2018,09,23,02,54,3.50
2018,09,23,02,55,3.50
2018,09,23,02,56,3.50
2018,09,23,02,57,3.50
2018,09,23,02,58,3.50
2018,09,23,02,59,3.50
2018,09,23,03,00,3.50
2018,09,23,03,01,3.50
2018,09,23,03,02,3.50
2018,09,23,03,03,3.50
2018,09,23,03,04,3.50
2018,09,23,03,05,3.50
2018,09,23,03,06,3.50
2018,09,23,03,07,3.50
2018,09,23,03,08,3.50
2018,09,23,03,09,3.50
2018,09,23,03,10,3.50
2018,09,23,03,11,3.50
2018,09,23,03,12,3.50
2018,09,23,03,13,3.50
2018,09,23,03,14,3.60
2018,09,23,03,15,3.60
2018,09,23,03,16,3.60
2018,09,23,03,17,3.60
2018,09,23,03,18,3.60
2018,09,23,03,19,3.60
2018,09,23,03,20,3.50
2018,09,23,03,21,3.60
2018,09,23,03,22,3.50
2018,09,23,03,23,3.50
2018,09,23,03,24,3.50
2018,09,23,03,25,3.50
2018,09,23,03,26,3.50
2018,09,23,03,27,3.50
2018,09,23,03,28,3.50
2018,09,23,03,29,3.50
2018,09,23,03,30,3.50
2018,09,23,03,31,3.50
2018,09,23,03,32,3.50
2018,09,23,03,33,3.50
2018,09,23,03,34,3.50
2018,09,23,03,35,3.50
2018,09,23,03,36,3.50
2018,09,23,03,37,3.50
2018,09,23,03,38,3.50
2018,09,23,03,39,3.50
2018,09,23,03,40,3.50
2018,09,23,03,41,3.40
2018,09,23,03,42,3.40
2018,09,23,03,43,3.40
2018,09,23,03,44,3.40
2018,09,23,03,45,3.40
2018,09,23,03,46,3.40
2018,09,23,03,47,3.40
2018,09,23,03,48,3.40
2018,09,23,03,49,3.40
2018,09,23,03,50,3.40
2018,09,23,03,51,3.40
2018,09,23,03,52,3.40
2018,09,23,03,53,3.40
2018,09,23,03,54,3.40
2018,09,23,03,55,3.40
2018,09,23,03,56,3.40
2018,09,23,03,57,3.40
2018,09,23,03,58,3.40
2018,09,23,03,59,3.40
2018,09,23,04,00,3.40
2018,09,23,04,01,3.40
2018,09,23,04,02,3.40
2018,09,23,04,03,3.40
2018,09,23,04,04,3.40
2018,09,23,04,05,3.40
2018,09,23,04,06,3.40
2018,09,23,04,07,3.40
2018,09,23,04,08,3.40
2018,09,23,04,09,3.40
2018,09,23,04,10,3.40
2018,09,23,04,11,3.40
2018,09,23,04,12,3.40
2018,09,23,04,13,3.40
2018,09,23,04,14,3.40
2018,09,23,04,15,3.40
2018,09,23,04,16,3.40
2018,09,23,04,17,3.40
2018,09,23,04,18,3.40
2018,09,23,04,19,3.40
2018,09,23,04,20,3.40
2018,09,23,04,21,3.40
2018,09,23,04,22,3.40
2018,09,23,04,23,3.40
2018,09,23,04,24,3.40
2018,09,23,04,25,3.40
2018,09,23,04,26,3.40
2018,09,23,04,27,3.40
2018,09,23,04,28,3.40
2018,09,23,04,29,3.40
2018,09,23,04,30,3.40
2018,09,23,04,31,3.40
2018,09,23,04,32,3.40
2018,09,23,04,33,3.40
2018,09,23,04,34,3.40
2018,09,23,04,35,3.40
2018,09,23,04,36,3.40
2018,09,23,04,37,3.40
2018,09,23,04,38,3.40
2018,09,23,04,39,3.40
2018,09,23,04,40,3.40
2018,09,23,04,41,3.40
2018,09,23,04,42,3.40
2018,09,23,04,43,3.40
2018,09,23,04,44,3.40
2018,09,23,04,45,3.40
2018,09,23,04,46,3.40
2018,09,23,04,47,3.40
2018,09,23,04,48,3.40
2018,09,23,04,49,3.40
2018,09,23,04,50,3.40
2018,09,23,04,51,3.40
2018,09,23,04,52,3.40
2018,09,23,04,53,3.40
2018,09,23,04,54,3.40
2018,09,23,04,55,3.40
2018,09,23,04,56,3.40
2018,09,23,04,57,3.40
2018,09,23,04,58,3.40
2018,09,23,04,59,3.40
2018,09,23,05,00,3.40
2018,09,23,05,01,3.40
2018,09,23,05,02,3.40
2018,09,23,05,03,3.40
2018,09,23,05,04,3.40
2018,09,23,05,05,3.40
2018,09,23,05,06,3.40
2018,09,23,05,07,3.40
2018,09,23,05,08,3.40
2018,09,23,05,09,3.40
2018,09,23,05,10,3.40
2018,09,23,05,11,3.40
2018,09,23,05,12,3.40
2018,09,23,05,13,3.40
2018,09,23,05,14,3.40
2018,09,23,05,15,3.40
2018,09,23,05,16,3.40
2018,09,23,05,17,3.40
2018,09,23,05,18,3.40
2018,09,23,05,19,3.40
2018,09,23,05,20,3.40
2018,09,23,05,21,3.40
2018,09,23,05,22,3.40
2018,09,23,05,23,3.40
2018,09,23,05,24,3.40
2018,09,23,05,25,3.40
2018,09,23,05,26,3.40
2018,09,23,05,27,3.40
2018,09,23,05,28,3.40
2018,09,23,05,29,3.40
2018,09,23,05,30,3.40
2018,09,23,05,31,3.40
2018,09,23,05,32,3.40
2018,09,23,05,33,3.40
2018,09,23,05,34,3.40
2018,09,23,05,35,3.40
2018,09,23,05,36,3.40
2018,09,23,05,37,3.40
2018,09,23,05,38,3.40
2018,09,23,05,39,3.40
2018,09,23,05,40,3.40
2018,09,23,05,41,3.40
2018,09,23,05,42,3.40
2018,09,23,05,43,3.40
2018,09,23,05,44,3.30
2018,09,23,05,45,3.30
2018,09,23,05,46,3.30
2018,09,23,05,47,3.30
2018,09,23,05,48,3.30
2018,09,23,05,49,3.30
2018,09,23,05,50,3.20
2018,09,23,05,51,3.20
2018,09,23,05,52,3.20
2018,09,23,05,53,3.20
2018,09,23,05,54,3.20
2018,09,23,05,55,3.20
2018,09,23,05,56,3.20
2018,09,23,05,57,3.20
2018,09,23,05,58,3.20
2018,09,23,05,59,3.20
2018,09,23,06,00,3.10
2018,09,23,06,01,3.20
2018,09,23,06,02,3.10
2018,09,23,06,03,3.10
2018,09,23,06,04,3.10
2018,09,23,06,05,3.10
2018,09,23,06,06,3.10
2018,09,23,06,07,3.10
2018,09,23,06,08,3.10
2018,09,23,06,09,3.10
2018,09,23,06,10,3.10
2018,09,23,06,11,3.10
2018,09,23,06,12,3.10
2018,09,23,06,13,3.10
2018,09,23,06,14,3.10
2018,09,23,06,15,3.10
2018,09,23,06,16,3.10
2018,09,23,06,17,3.10
2018,09,23,06,18,3.10
2018,09,23,06,19,3.10
2018,09,23,06,20,3.10
2018,09,23,06,21,3.10
2018,09,23,06,22,3.10
2018,09,23,06,23,3.10
2018,09,23,06,24,3.00
2018,09,23,06,25,3.00
2018,09,23,06,26,3.00
2018,09,23,06,27,3.00
2018,09,23,06,28,2.90
2018,09,23,06,29,2.90
2018,09,23,06,30,2.90
2018,09,23,06,31,2.90
2018,09,23,06,32,2.90
2018,09,23,06,33,2.90
2018,09,23,06,34,2.80
2018,09,23,06,35,2.80
2018,09,23,06,36,2.80
2018,09,23,06,37,2.80
2018,09,23,06,38,2.80
2018,09,23,06,39,2.80
2018,09,23,06,40,2.80
2018,09,23,06,41,2.80
2018,09,23,06,42,2.80
2018,09,23,06,43,2.80
2018,09,23,06,44,2.80
2018,09,23,06,45,2.80
2018,09,23,06,46,2.80
2018,09,23,06,47,2.80
2018,09,23,06,48,2.90
2018,09,23,06,49,2.90
2018,09,23,06,50,2.90
2018,09,23,06,51,2.90
2018,09,23,06,52,2.90
2018,09,23,06,53,2.90
2018,09,23,06,54,2.90
2018,09,23,06,55,2.90
2018,09,23,06,56,2.90
2018,09,23,06,57,2.90
2018,09,23,06,58,2.90
2018,09,23,06,59,2.90
2018,09,23,07,00,2.90
2018,09,23,07,01,2.90
2018,09,23,07,02,2.90
2018,09,23,07,03,3.00
2018,09,23,07,04,3.00
2018,09,23,07,05,3.00
2018,09,23,07,06,3.00
2018,09,23,07,07,3.00
2018,09,23,07,08,3.00
2018,09,23,07,09,3.00
2018,09,23,07,10,3.00
2018,09,23,07,11,3.00
2018,09,23,07,12,3.00
2018,09,23,07,13,3.10
2018,09,23,07,14,3.10
2018,09,23,07,15,3.10
2018,09,23,07,16,3.10
2018,09,23,07,17,3.10
2018,09,23,07,18,3.10
2018,09,23,07,19,3.10
2018,09,23,07,20,3.10
2018,09,23,07,21,3.10
2018,09,23,07,22,3.10
2018,09,23,07,23,3.10
2018,09,23,07,24,3.10
2018,09,23,07,25,3.10
2018,09,23,07,26,3.10
2018,09,23,07,27,3.10
2018,09,23,07,28,3.10
2018,09,23,07,29,3.10
2018,09,23,07,30,3.10
2018,09,23,07,31,3.10
2018,09,23,07,32,3.00
2018,09,23,07,33,3.00
2018,09,23,07,34,3.00
2018,09,23,07,35,3.00
2018,09,23,07,36,3.00
2018,09,23,07,37,3.00
2018,09,23,07,38,3.00
2018,09,23,07,39,3.00
2018,09,23,07,40,2.90
2018,09,23,07,41,2.90
2018,09,23,07,42,2.90
2018,09,23,07,43,2.90
2018,09,23,07,44,2.90
2018,09,23,07,45,2.90
2018,09,23,07,46,2.90
2018,09,23,07,47,2.90
2018,09,23,07,48,2.90
2018,09,23,07,49,2.90
2018,09,23,07,50,2.90
2018,09,23,07,51,2.90
2018,09,23,07,52,2.90
2018,09,23,07,53,2.90
2018,09,23,07,54,2.90
2018,09,23,07,55,2.90
2018,09,23,07,56,2.90
2018,09,23,07,57,2.90
2018,09,23,07,58,2.90
2018,09,23,07,59,2.90
2018,09,23,08,00,2.90
2018,09,23,08,01,2.90
2018,09,23,08,02,2.90
2018,09,23,08,03,2.90
2018,09,23,08,04,2.90
2018,09,23,08,05,2.80
2018,09,23,08,06,2.80
2018,09,23,08,07,2.80
2018,09,23,08,08,2.80
2018,09,23,08,09,2.80
2018,09,23,08,10,2.80
2018,09,23,08,11,2.80
2018,09,23,08,12,2.80
2018,09,23,08,13,2.80
2018,09,23,08,14,2.80
2018,09,23,08,15,2.80
2018,09,23,08,16,2.80
2018,09,23,08,17,2.80
2018,09,23,08,18,2.80
2018,09,23,08,19,2.80
2018,09,23,08,20,2.80
2018,09,23,08,21,2.80
2018,09,23,08,22,2.80
2018,09,23,08,23,2.80
2018,09,23,08,24,2.80
2018,09,23,08,25,2.80
2018,09,23,08,26,2.80
2018,09,23,08,27,2.70
2018,09,23,08,28,2.70
2018,09,23,08,29,2.70
2018,09,23,08,30,2.70
2018,09,23,08,31,2.70
2018,09,23,08,32,2.70
2018,09,23,08,33,2.70
2018,09,23,08,34,2.70
2018,09,23,08,35,2.70
2018,09,23,08,36,2.70
2018,09,23,08,37,2.70
2018,09,23,08,38,2.70
2018,09,23,08,39,2.70
2018,09,23,08,40,2.70
2018,09,23,08,41,2.70
2018,09,23,08,42,2.70
2018,09,23,08,43,2.70
2018,09,23,08,44,2.70
2018,09,23,08,45,2.70
2018,09,23,08,46,2.70
2018,09,23,08,47,2.70
2018,09,23,08,48,2.70
2018,09,23,08,49,2.70
2018,09,23,08,50,2.70
2018,09,23,08,51,2.70
2018,09,23,08,52,2.70
2018,09,23,08,53,2.70
2018,09,23,08,54,2.70
2018,09,23,08,55,2.70
2018,09,23,08,56,2.70
2018,09,23,08,57,2.70
2018,09,23,08,58,2.70
2018,09,23,08,59,2.70
2018,09,23,09,00,2.70
2018,09,23,09,01,2.70
2018,09,23,09,02,2.70
2018,09,23,09,03,2.80
2018,09,23,09,04,2.80
2018,09,23,09,05,2.80
2018,09,23,09,06,2.80
2018,09,23,09,07,2.80
2018,09,23,09,08,2.80
2018,09,23,09,09,2.90
2018,09,23,09,10,2.90
2018,09,23,09,11,2.90
2018,09,23,09,12,2.90
2018,09,23,09,13,2.90
2018,09,23,09,14,2.90
2018,09,23,09,15,2.90
2018,09,23,09,16,3.00
2018,09,23,09,17,3.00
2018,09,23,09,18,3.00
2018,09,23,09,19,3.00
2018,09,23,09,20,3.00
2018,09,23,09,21,3.00
2018,09,23,09,22,3.00
2018,09,23,09,23,3.00
2018,09,23,09,24,3.10
2018,09,23,09,25,3.10
2018,09,23,09,26,3.10
2018,09,23,09,27,3.10
2018,09,23,09,28,3.10
2018,09,23,09,29,3.10
2018,09,23,09,30,3.10
2018,09,23,09,31,3.10
2018,09,23,09,32,3.10
2018,09,23,09,33,3.10
2018,09,23,09,34,3.00
2018,09,23,09,35,3.00
2018,09,23,09,36,3.00
2018,09,23,09,37,3.00
2018,09,23,09,38,3.00
2018,09,23,09,39,3.00
2018,09,23,09,40,3.00
2018,09,23,09,41,2.90
2018,09,23,09,42,3.00
2018,09,23,09,43,2.90
2018,09,23,09,44,2.90
2018,09,23,09,45,2.90
2018,09,23,09,46,2.90
2018,09,23,09,47,2.90
2018,09,23,09,48,3.00
2018,09,23,09,49,3.00
2018,09,23,09,50,3.00
2018,09,23,09,51,3.00
2018,09,23,09,52,3.00
2018,09,23,09,53,3.00
2018,09,23,09,54,3.00
2018,09,23,09,55,3.10
2018,09,23,09,56,3.10
2018,09,23,09,57,3.10
2018,09,23,09,58,3.10
2018,09,23,09,59,3.20
2018,09,23,10,00,3.20
2018,09,23,10,01,3.20
2018,09,23,10,02,3.20
2018,09,23,10,03,3.20
2018,09,23,10,04,3.20
2018,09,23,10,05,3.20
2018,09,23,10,06,3.20
2018,09,23,10,07,3.20
2018,09,23,10,08,3.20
2018,09,23,10,09,3.20
2018,09,23,10,10,3.20
2018,09,23,10,11,3.30
2018,09,23,10,12,3.30
2018,09,23,10,13,3.30
2018,09,23,10,14,3.30
2018,09,23,10,15,3.30
2018,09,23,10,16,3.30
2018,09,23,10,17,3.30
2018,09,23,10,18,3.30
2018,09,23,10,19,3.30
2018,09,23,10,20,3.40
2018,09,23,10,21,3.40
2018,09,23,10,22,3.40
2018,09,23,10,23,3.40
2018,09,23,10,24,3.40
2018,09,23,10,25,3.40
2018,09,23,10,26,3.40
2018,09,23,10,27,3.40
2018,09,23,10,28,3.40
2018,09,23,10,29,3.40
2018,09,23,10,30,3.50
2018,09,23,10,31,3.50
2018,09,23,10,32,3.50
2018,09,23,10,33,3.50
2018,09,23,10,34,3.50
2018,09,23,10,35,3.50
2018,09,23,10,36,3.50
2018,09,23,10,37,3.50
2018,09,23,10,38,3.50
2018,09,23,10,39,3.50
2018,09,23,10,40,3.50
2018,09,23,10,41,3.50
2018,09,23,10,42,3.50
2018,09,23,10,43,3.50
2018,09,23,10,44,3.50
2018,09,23,10,45,3.50
2018,09,23,10,46,3.50
2018,09,23,10,47,3.50
2018,09,23,10,48,3.50
2018,09,23,10,49,3.50
2018,09,23,10,50,3.50
2018,09,23,10,51,3.50
2018,09,23,10,52,3.50
2018,09,23,10,53,3.50
2018,09,23,10,54,3.50
2018,09,23,10,55,3.50
2018,09,23,10,56,3.50
2018,09,23,10,57,3.50
2018,09,23,10,58,3.60
2018,09,23,10,59,3.60
2018,09,23,11,00,3.60
2018,09,23,11,01,3.60
2018,09,23,11,02,3.60
2018,09,23,11,03,3.60
2018,09,23,11,04,3.60
2018,09,23,11,05,3.60
2018,09,23,11,06,3.60
2018,09,23,11,07,3.60
2018,09,23,11,08,3.60
2018,09,23,11,09,3.60
2018,09,23,11,10,3.60
2018,09,23,11,11,3.60
2018,09,23,11,12,3.60
2018,09,23,11,13,3.70
2018,09,23,11,14,3.70
2018,09,23,11,15,3.70
2018,09,23,11,16,3.70
2018,09,23,11,17,3.70
2018,09,23,11,18,3.70
2018,09,23,11,19,3.70
2018,09,23,11,20,3.70
2018,09,23,11,21,3.70
2018,09,23,11,22,3.70
2018,09,23,11,23,3.70
2018,09,23,11,24,3.80
2018,09,23,11,25,3.80
2018,09,23,11,26,3.80
2018,09,23,11,27,3.80
2018,09,23,11,28,3.80
2018,09,23,11,29,3.80
2018,09,23,11,30,3.80
2018,09,23,11,31,3.80
2018,09,23,11,32,3.80
2018,09,23,11,33,3.80
2018,09,23,11,34,3.90
2018,09,23,11,35,3.90
2018,09,23,11,36,3.90
2018,09,23,11,37,3.90
2018,09,23,11,38,3.90
2018,09,23,11,39,3.90
2018,09,23,11,40,3.90
2018,09,23,11,41,3.90
2018,09,23,11,42,3.90
2018,09,23,11,43,3.90
2018,09,23,11,44,3.90
2018,09,23,11,45,3.90
2018,09,23,11,46,3.90
2018,09,23,11,47,4.00
2018,09,23,11,48,4.00
2018,09,23,11,49,4.00
2018,09,23,11,50,4.10
2018,09,23,11,51,4.10
2018,09,23,11,52,4.10
2018,09,23,11,53,4.20
2018,09,23,11,54,4.20
2018,09,23,11,55,4.20
2018,09,23,11,56,4.20
2018,09,23,11,57,4.20
2018,09,23,11,58,4.20
2018,09,23,11,59,4.30
2018,09,23,12,00,4.30
2018,09,23,12,01,4.30
2018,09,23,12,02,4.30
2018,09,23,12,03,4.30
2018,09,23,12,04,4.40
2018,09,23,12,05,4.40
2018,09,23,12,06,4.50
2018,09,23,12,07,4.50
2018,09,23,12,08,4.60
2018,09,23,12,09,4.60
2018,09,23,12,10,4.60
2018,09,23,12,11,4.70
2018,09,23,12,12,4.70
2018,09,23,12,13,4.80
2018,09,23,12,14,4.80
2018,09,23,12,15,4.80
2018,09,23,12,16,4.90
2018,09,23,12,17,4.90
2018,09,23,12,18,4.90
2018,09,23,12,19,5.00
2018,09,23,12,20,5.00
2018,09,23,12,21,5.00
2018,09,23,12,22,5.10
2018,09,23,12,23,5.10
2018,09,23,12,24,5.20
2018,09,23,12,25,5.20
2018,09,23,12,26,5.20
2018,09,23,12,27,5.30
2018,09,23,12,28,5.30
2018,09,23,12,29,5.30
2018,09,23,12,30,5.30
2018,09,23,12,31,5.30
2018,09,23,12,32,5.30
2018,09,23,12,33,5.30
2018,09,23,12,34,5.30
2018,09,23,12,35,5.30
2018,09,23,12,36,5.30
2018,09,23,12,37,5.30
2018,09,23,12,38,5.30
2018,09,23,12,39,5.30
2018,09,23,12,40,5.30
2018,09,23,12,41,5.40
2018,09,23,12,42,5.40
2018,09,23,12,43,5.40
2018,09,23,12,44,5.40
2018,09,23,12,45,5.50
2018,09,23,12,46,5.50
2018,09,23,12,47,5.60
2018,09,23,12,48,5.60
2018,09,23,12,49,5.70
2018,09,23,12,50,5.70
2018,09,23,12,51,5.80
2018,09,23,12,52,5.80
2018,09,23,12,53,5.80
2018,09,23,12,54,5.80
2018,09,23,12,55,5.80
2018,09,23,12,56,5.80
2018,09,23,12,57,5.80
2018,09,23,12,58,5.90
2018,09,23,12,59,5.90
2018,09,23,13,00,5.90
2018,09,23,13,01,5.90
2018,09,23,13,02,5.90
2018,09,23,13,03,5.90
2018,09,23,13,04,5.90
2018,09,23,13,05,5.90
2018,09,23,13,06,5.90
2018,09,23,13,07,5.90
2018,09,23,13,08,5.90
2018,09,23,13,09,6.00
2018,09,23,13,10,6.00
2018,09,23,13,11,6.10
2018,09,23,13,12,6.00
2018,09,23,13,13,6.10
2018,09,23,13,14,6.10
2018,09,23,13,15,6.10
2018,09,23,13,16,6.10
2018,09,23,13,17,6.10
2018,09,23,13,18,6.10
2018,09,23,13,19,6.10
2018,09,23,13,20,6.10
2018,09,23,13,21,6.10
2018,09,23,13,22,6.10
2018,09,23,13,23,6.20
2018,09,23,13,24,6.20
2018,09,23,13,25,6.20
2018,09,23,13,26,6.20
2018,09,23,13,27,6.20
2018,09,23,13,28,6.20
2018,09,23,13,29,6.30
2018,09,23,13,30,6.30
2018,09,23,13,31,6.40
2018,09,23,13,32,6.40
2018,09,23,13,33,6.40
2018,09,23,13,34,6.50
2018,09,23,13,35,6.50
2018,09,23,13,36,6.60
2018,09,23,13,37,6.60
2018,09,23,13,38,6.60
2018,09,23,13,39,6.70
2018,09,23,13,40,6.80
2018,09,23,13,41,6.80
2018,09,23,13,42,6.90
2018,09,23,13,43,6.90
2018,09,23,13,44,7.00
2018,09,23,13,45,7.00
2018,09,23,13,46,7.00
2018,09,23,13,47,7.10
2018,09,23,13,48,7.10
2018,09,23,13,49,7.10
2018,09,23,13,50,7.20
2018,09,23,13,51,7.20
2018,09,23,13,52,7.20
2018,09,23,13,53,7.30
2018,09,23,13,54,7.30
2018,09,23,13,55,7.40
2018,09,23,13,56,7.50
2018,09,23,13,57,7.60
2018,09,23,13,58,7.60
2018,09,23,13,59,7.70
2018,09,23,14,00,7.70
2018,09,23,14,01,7.80
2018,09,23,14,02,7.80
2018,09,23,14,03,7.80
2018,09,23,14,04,7.90
2018,09,23,14,05,8.00
2018,09,23,14,06,8.00
2018,09,23,14,07,8.10
2018,09,23,14,08,8.20
2018,09,23,14,09,8.30
2018,09,23,14,10,8.30
2018,09,23,14,11,8.30
2018,09,23,14,12,8.40
2018,09,23,14,13,8.40
2018,09,23,14,14,8.50
2018,09,23,14,15,8.60
2018,09,23,14,16,8.60
2018,09,23,14,17,8.60
2018,09,23,14,18,8.60
2018,09,23,14,19,8.60
2018,09,23,14,20,8.60
2018,09,23,14,21,8.60
2018,09,23,14,22,8.70
2018,09,23,14,23,8.70
2018,09,23,14,24,8.70
2018,09,23,14,25,8.80
2018,09,23,14,26,8.80
2018,09,23,14,27,8.90
2018,09,23,14,28,8.90
2018,09,23,14,29,8.90
2018,09,23,14,30,8.90
2018,09,23,14,31,9.00
2018,09,23,14,32,9.00
2018,09,23,14,33,9.00
2018,09,23,14,34,9.10
2018,09,23,14,35,9.20
2018,09,23,14,36,9.30
2018,09,23,14,37,9.40
2018,09,23,14,38,9.50
2018,09,23,14,39,9.50
2018,09,23,14,40,9.60
2018,09,23,14,41,9.80
2018,09,23,14,42,9.90
2018,09,23,14,43,10.00
2018,09,23,14,44,10.10
2018,09,23,14,45,10.20
2018,09,23,14,46,10.30
2018,09,23,14,47,10.40
2018,09,23,14,48,10.40
2018,09,23,14,49,10.40
2018,09,23,14,50,10.50
2018,09,23,14,51,10.50
2018,09,23,14,52,10.50
2018,09,23,14,53,10.50
2018,09,23,14,54,10.50
2018,09,23,14,55,10.40
2018,09,23,14,56,10.30
2018,09,23,14,57,10.30
2018,09,23,14,58,10.30
2018,09,23,14,59,10.20
2018,09,23,15,00,10.20
2018,09,23,15,01,10.20
2018,09,23,15,02,10.10
2018,09,23,15,03,10.00
2018,09,23,15,04,9.90
2018,09,23,15,05,9.70
2018,09,23,15,06,9.60
2018,09,23,15,07,9.50
2018,09,23,15,08,9.50
2018,09,23,15,09,9.40
2018,09,23,15,10,9.40
2018,09,23,15,11,9.30
2018,09,23,15,12,9.30
2018,09,23,15,13,9.30
2018,09,23,15,14,9.30
2018,09,23,15,15,9.30
2018,09,23,15,16,9.30
2018,09,23,15,17,9.30
2018,09,23,15,18,9.20
2018,09,23,15,19,9.20
2018,09,23,15,20,9.20
2018,09,23,15,21,9.20
2018,09,23,15,22,9.20
2018,09,23,15,23,9.20
2018,09,23,15,24,9.10
2018,09,23,15,25,9.20
2018,09,23,15,26,9.20
2018,09,23,15,27,9.20
2018,09,23,15,28,9.20
2018,09,23,15,29,9.20
2018,09,23,15,30,9.20
2018,09,23,15,31,9.20
2018,09,23,15,32,9.20
2018,09,23,15,33,9.20
2018,09,23,15,34,9.20
2018,09,23,15,35,9.20
2018,09,23,15,36,9.20
2018,09,23,15,37,9.30
2018,09,23,15,38,9.30
2018,09,23,15,39,9.30
2018,09,23,15,40,9.30
2018,09,23,15,41,9.30
2018,09,23,15,42,9.40
2018,09,23,15,43,9.40
2018,09,23,15,44,9.40
2018,09,23,15,45,9.50
2018,09,23,15,46,9.50
2018,09,23,15,47,9.50
2018,09,23,15,48,9.60
2018,09,23,15,49,9.60
2018,09,23,15,50,9.60
2018,09,23,15,51,9.60
2018,09,23,15,52,9.70
2018,09,23,15,53,9.70
2018,09,23,15,54,9.70
2018,09,23,15,55,9.70
2018,09,23,15,56,9.70
2018,09,23,15,57,9.70
2018,09,23,15,58,9.70
2018,09,23,15,59,9.70
2018,09,23,16,00,9.70
2018,09,23,16,01,9.70
2018,09,23,16,02,9.70
2018,09,23,16,03,9.70
2018,09,23,16,04,9.70
2018,09,23,16,05,9.70
2018,09,23,16,06,9.70
2018,09,23,16,07,9.80
2018,09,23,16,08,9.80
2018,09,23,16,09,9.80
2018,09,23,16,10,9.80
2018,09,23,16,11,9.80
2018,09,23,16,12,9.80
2018,09,23,16,13,9.90
2018,09,23,16,14,9.90
2018,09,23,16,15,9.90
2018,09,23,16,16,10.00
2018,09,23,16,17,10.00
2018,09,23,16,18,10.10
2018,09,23,16,19,10.10
2018,09,23,16,20,10.20
2018,09,23,16,21,10.20
2018,09,23,16,22,10.20
2018,09,23,16,23,10.30
2018,09,23,16,24,10.30
2018,09,23,16,25,10.40
2018,09,23,16,26,10.40
2018,09,23,16,27,10.40
2018,09,23,16,28,10.50
2018,09,23,16,29,10.50
2018,09,23,16,30,10.60
2018,09,23,16,31,10.60
2018,09,23,16,32,10.70
2018,09,23,16,33,10.70
2018,09,23,16,34,10.70
2018,09,23,16,35,10.70
2018,09,23,16,36,10.80
2018,09,23,16,37,10.80
2018,09,23,16,38,10.80
2018,09,23,16,39,10.80
2018,09,23,16,40,10.80
2018,09,23,16,41,10.80
2018,09,23,16,42,10.80
2018,09,23,16,43,10.80
2018,09,23,16,44,10.80
2018,09,23,16,45,10.80
2018,09,23,16,46,10.80
2018,09,23,16,47,10.80
2018,09,23,16,48,10.70
2018,09,23,16,49,10.70
2018,09,23,16,50,10.60
2018,09,23,16,51,10.50
2018,09,23,16,52,10.40
2018,09,23,16,53,10.40
2018,09,23,16,54,10.30
2018,09,23,16,55,10.30
2018,09,23,16,56,10.20
2018,09,23,16,57,10.10
2018,09,23,16,58,10.10
2018,09,23,16,59,10.10
2018,09,23,17,00,10.10
2018,09,23,17,01,10.00
2018,09,23,17,02,10.00
2018,09,23,17,03,10.00
2018,09,23,17,04,10.00
2018,09,23,17,05,10.00
2018,09,23,17,06,10.00
2018,09,23,17,07,9.90
2018,09,23,17,08,9.80
2018,09,23,17,09,9.80
2018,09,23,17,10,9.70
2018,09,23,17,11,9.60
2018,09,23,17,12,9.50
2018,09,23,17,13,9.50
2018,09,23,17,14,9.50
2018,09,23,17,15,9.40
2018,09,23,17,16,9.40
2018,09,23,17,17,9.30
2018,09,23,17,18,9.20
2018,09,23,17,19,9.20
2018,09,23,17,20,9.20
2018,09,23,17,21,9.20
2018,09,23,17,22,9.30
2018,09,23,17,23,9.40
2018,09,23,17,24,9.50
2018,09,23,17,25,9.60
2018,09,23,17,26,9.70
2018,09,23,17,27,9.80
2018,09,23,17,28,9.90
2018,09,23,17,29,10.00
2018,09,23,17,30,10.10
2018,09,23,17,31,10.20
2018,09,23,17,32,10.20
2018,09,23,17,33,10.30
2018,09,23,17,34,10.30
2018,09,23,17,35,10.30
2018,09,23,17,36,10.20
2018,09,23,17,37,10.10
2018,09,23,17,38,10.10
2018,09,23,17,39,10.00
2018,09,23,17,40,9.90
2018,09,23,17,41,9.90
2018,09,23,17,42,9.80
2018,09,23,17,43,9.70
2018,09,23,17,44,9.60
2018,09,23,17,45,9.60
2018,09,23,17,46,9.50
2018,09,23,17,47,9.50
2018,09,23,17,48,9.40
2018,09,23,17,49,9.40
2018,09,23,17,50,9.40
2018,09,23,17,51,9.40
2018,09,23,17,52,9.30
2018,09,23,17,53,9.30
2018,09,23,17,54,9.30
2018,09,23,17,55,9.30
2018,09,23,17,56,9.30
2018,09,23,17,57,9.30
2018,09,23,17,58,9.30
2018,09,23,17,59,9.30
2018,09,23,18,00,9.30
2018,09,23,18,01,9.30
2018,09,23,18,02,9.30